Tracking 19176 objects as of 26-May-2018
HD Live streaming from Space Station
objects crossing your sky now

FENGYUN 1C DEB

Track FENGYUN 1C DEB now!
10-day predictions


NORAD ID: 30369
Int'l Code: 1999-025ACG
Perigee: 791.5 km
Apogee: 941.1 km
Inclination: 98.9 °
Period: 102.1 minutes
Semi major axis: 7237 km
RCS: 0.022 m2 (small)
Launch date: May 10, 1999
Source: People's Republic of China (PRC)
Launch site: Taiyaun Space Center, China (TSC)

Note: This is SATELLITE DEBRIS
aabbcc
Your satellite tracking list
Your tracking list is empty




NASA's NSSDC Master Catalog

Two Line Element Set (TLE):
1 30369U 99025ACG 18146.03576837  .00000037  00000-0  43113-4 0  9991
2 30369  98.8615 176.2328 0103405  89.5296 301.5851 14.10062162583957
Source of the keplerian elements: AFSPC